Regional Weather Roundup
Issued by NWS

Home | Current Version | Previous Version | Graphics & Text | Print | Product List | Glossary On
Versions: 1 2 3 4 5 6 7 8 9 10 11 12 13 14 15 16 17 18 19 20 21 22 23 24 25 26 27 28 29 30 31 32 33 34 35 36 37 38 39 40 41 42 43 44 45 46 47 48 49 50
000
ASUS43 KDTX 120210
RWRMI
MICHIGAN HOURLY REGIONAL WEATHER ROUNDUP
NATIONAL WEATHER SERVICE DETROIT/PONTIAC MI
900 PM EST THU FEB 11 2016

NOTE: "FAIR" INDICATES FEW OR NO CLOUDS BELOW 12,000 FEET WITH NO
SIGNIFICANT WEATHER AND/OR OBSTRUCTION TO VISIBILITY.

MIZ047>049-052>055-059>063-066>070-074>076-081>083-120300-
SOUTHEAST LOWER MICHIGAN

CITY           SKY/WX    TMP DP  RH WIND       PRES   REMARKS
ADRIAN         CLEAR     15   5  64 W5        30.25F WCI   8
ALMA           CLEAR     16   8  70 W6        30.22S WCI   7
ANN ARBOR      CLEAR      7   2  80 W5        30.23F WCI  -2
BAD AXE        CLOUDY    13   5  69 SW6       30.18S WCI   4
CARO           MOCLDY     5   1  85 S3        30.19S
DETROIT CITY   CLEAR     14   3  61 SW5       30.24F WCI   6
DETROIT        PTCLDY    16   4  59 S8        30.25F WCI   5
FLINT          CLEAR     15   1  53 SW7       30.21S WCI   5
GROSSE ILE     CLEAR     18   7  62 CALM      30.24F
HILLSDALE      MOCLDY    16   5  60 W6        30.21S WCI   8
HOWELL         MOCLDY    13   2  61 SW3       30.21R

CITY           SKY/WX    TMP DP  RH WIND       PRES   REMARKS
JACKSON        MOCLDY    17  10  74 W7        30.22S WCI   8
LAMBERTVILLE   CLEAR     16   6  65 SW3       30.26F
LANSING        CLEAR     17   9  70 W8        30.23R WCI   7
LAPEER         FAIR       4  -1  79 SW3       30.20S
MASON          PTCLDY    17  10  76 SW3       30.22S
MONROE         CLEAR     15   7  69 SW5       30.25F WCI   8
MT. CLEMENS    CLEAR      9   3  77 S5        30.22S WCI   1
PONTIAC        PTCLDY    10   3  73 CALM      30.20S
PORT HOPE        N/A     13   4  67 SW5       30.17S WCI   5
PORT HURON     CLEAR      3   1  92 CALM      30.23F
TRI CITIES     MOCLDY    18   4  54 W9        30.21S WCI   7
MIDLAND        FAIR      15   3  58 W5        30.20S WCI   8
TROY           CLEAR     17   5  57 SW3       30.25S
SAGINAW HB     MOCLDY    14   5  67 SW6       30.21S WCI   5
$$
MIZ043>046-050>051-056>058-064>065-071>073-077>080-120300-
SOUTHWEST LOWER MICHIGAN

CITY           SKY/WX    TMP DP  RH WIND       PRES   REMARKS
BATTLE CREEK   CLOUDY    17   9  70 W9        30.24S WCI   6
BENTON HARBOR  CLEAR     14   5  67 CALM      30.27F
BIG RAPIDS     PTCLDY    11   3  70 CALM      30.18F
COLDWATER      MOCLDY    14   6  69 W5        30.24S WCI   7
FREMONT        FAIR      12   6  77 CALM      30.21F
HOLLAND        CLOUDY    16   7  67 SW6       30.25F WCI   7
GRAND RAPIDS   MOCLDY    17   8  67 W7        30.23F WCI   8
IONIA          FAIR      16   6  63 W7        30.21F WCI   6
KALAMAZOO      MOCLDY    16   7  67 SW5       30.25S WCI   9
LUDINGTON      PTCLDY    19   8  62 W6        30.21F WCI  10
MARSHALL       CLOUDY    17  12  78 W8        30.23S WCI   7
MOUNT PLEASANT CLEAR     17   6  62 W8        30.20S WCI   6
MUSKEGON       PTCLDY    19   5  54 W7        30.24F WCI  10
SOUTH HAVEN    CLOUDY    19   8  62 SW5       30.26F WCI  12
$$
MIZ016>042-120300-
NORTHERN LOWER MICHIGAN

CITY           SKY/WX    TMP DP  RH WIND       PRES   REMARKS
ALPENA         CLOUDY    16   8  71 W6        30.12F WCI   7
BEAVER ISLAND  CLOUDY    19   9  64 W13G18    30.10F WCI   6
BELLAIRE       CLOUDY    18   9  67 SW8       30.15F WCI   8
CADILLAC       MOCLDY    12   5  73 SW7       30.12F WCI   2
CHARLEVOIX     CLOUDY    20  10  63 W9        30.14F WCI  10
FRANKFORT      CLOUDY    20   8  59 W9        30.17F WCI   9
GAYLORD        CLOUDY    14   6  70 SW10      30.08S WCI   1
GRAYLING       CLOUDY    14   5  69 SW7       30.13F WCI   4
HARBOR SPRINGS CLOUDY    19   6  59 W7        30.11F WCI   9
HOUGHTON LAKE  CLOUDY    14   4  64 W13       30.14F WCI   0
MANISTEE       CLOUDY    19   7  58 W10       30.19F WCI   8
OSCODA         CLOUDY    16   4  61 W9        30.16F WCI   4
PELLSTON       CLOUDY    16   6  65 NW5       30.11F WCI   9
ROGERS CITY    CLOUDY    15   9  76 W7        30.12F WCI   5
TRAVERSE CITY  MOCLDY    17   7  64 S3        30.16F
$$
MIZ007>008-015-120300-
EASTERN UPPER MICHIGAN

CITY           SKY/WX    TMP DP  RH WIND       PRES   REMARKS
KINROSS        MOCLDY    14   7  73 W7        30.04F WCI   4
MACKINAC ISLAN CLOUDY    17   6  62 W17G23    30.08F WCI   2
NEWBERRY       CLOUDY    14   5  67 SW13G20   30.05F WCI   0
S. S. MARIE    CLOUDY    14   4  64 SW13      30.02F WCI   0
MUNISING         N/A     10   4  76 SW3       30.08F
$$
MIZ004>006-011>014-085-120300-
CENTRAL UPPER MICHIGAN

CITY           SKY/WX    TMP DP  RH WIND       PRES   REMARKS
MANISTIQUE     CLOUDY    16   6  63 SW5       30.08F WCI   9
ESCANABA       CLOUDY    16   7  67 SW9       30.10F WCI   4
MENOMINEE      CLOUDY    14  -2  48 SW7       30.14F WCI   4
SAWYER-GWINN   CLOUDY     9   1  72 W3        30.04S
$$
MIZ001>003-009>011-084-120300-
WESTERN UPPER MICHIGAN

CITY           SKY/WX    TMP DP  RH WIND       PRES   REMARKS
IRON MOUNTAIN  CLOUDY    15  -5  40 W7        30.06F WCI   5
HOUGHTON       LGT SNOW  15  10  80 W15       29.99F VSB 3/4 WCI   0
COPPER HARBOR    N/A     19  10  68 NW9G24    30.01F WCI   8
IRONWOOD       CLOUDY    10  -2  56 W15       30.08F WCI  -6
$$

ABBREVIATIONS USED IN REMARKS
   TC - TEMPERATURE IN CELSIUS
  WCI - WIND CHILL INDEX
   HX - HEAT INDEX
  VSB - VISIBILITY




USA.gov is the U.S. government's official web portal to all federal, state and local government web resources and services.